Time,TemperatureF,DewpointF,PressureIn,WindDirection,WindDirectionDegrees,WindSpeedMPH,WindSpeedGustMPH,Humidity,HourlyPrecipIn,Conditions,Clouds,dailyrainin,SoftwareType,DateUTC
2013-07-10 00:01:00,79.3,65.2,30.11,SW,225,2.2,5.4,62,0.00,,,0.00,pywws,2013-07-10 04:01:00,
2013-07-10 00:03:00,79.3,65.2,30.11,South,180,0.7,2.2,62,0.00,,,0.00,pywws,2013-07-10 04:03:00,
2013-07-10 00:04:00,79.3,65.2,30.11,South,180,2.2,6.0,62,0.00,,,0.00,pywws,2013-07-10 04:04:00,
2013-07-10 00:10:00,79.2,65.5,30.11,East,90,2.2,4.5,63,0.00,,,0.00,pywws,2013-07-10 04:10:00,
2013-07-10 00:16:00,79.2,65.5,30.11,West,270,2.2,3.1,63,0.00,,,0.00,pywws,2013-07-10 04:16:00,
2013-07-10 00:21:00,79.2,65.5,30.10,West,270,3.1,3.8,63,0.00,,,0.00,pywws,2013-07-10 04:21:00,
2013-07-10 00:27:00,79.0,65.3,30.10,WSW,248,5.4,6.0,63,0.00,,,0.00,pywws,2013-07-10 04:27:00,
2013-07-10 00:32:00,79.0,65.3,30.10,SW,225,0.7,1.6,63,0.00,,,0.00,pywws,2013-07-10 04:32:00,
2013-07-10 00:38:00,79.0,65.3,30.10,South,180,2.2,3.1,63,0.00,,,0.00,pywws,2013-07-10 04:38:00,
2013-07-10 00:44:00,78.8,65.6,30.10,SW,225,2.2,3.1,64,0.00,,,0.00,pywws,2013-07-10 04:44:00,
2013-07-10 00:49:00,78.8,65.1,30.10,SW,225,2.2,3.8,63,0.00,,,0.00,pywws,2013-07-10 04:49:00,
2013-07-10 00:55:00,78.8,65.1,30.09,South,180,0.7,1.6,63,0.00,,,0.00,pywws,2013-07-10 04:55:00,
2013-07-10 01:00:00,78.8,65.6,30.09,SW,225,1.6,2.2,64,0.00,,,0.00,pywws,2013-07-10 05:00:00,
2013-07-10 01:06:00,78.8,65.6,30.09,NE,45,0.7,1.6,64,0.00,,,0.00,pywws,2013-07-10 05:06:00,
2013-07-10 01:12:00,78.8,65.6,30.09,SE,135,0.7,2.2,64,0.00,,,0.00,pywws,2013-07-10 05:12:00,
2013-07-10 01:17:00,78.8,65.6,30.09,SSW,202,0.7,0.7,64,0.00,,,0.00,pywws,2013-07-10 05:17:00,
2013-07-10 01:23:00,78.8,65.6,30.09,West,270,2.2,3.8,64,0.00,,,0.00,pywws,2013-07-10 05:23:00,
2013-07-10 01:28:00,78.8,65.6,30.09,South,180,1.6,2.2,64,0.00,,,0.00,pywws,2013-07-10 05:28:00,
2013-07-10 01:34:00,78.6,65.8,30.08,South,180,0.0,0.0,65,0.00,,,0.00,pywws,2013-07-10 05:34:00,
2013-07-10 01:40:00,78.6,65.8,30.08,SW,225,0.7,1.6,65,0.00,,,0.00,pywws,2013-07-10 05:40:00,
2013-07-10 01:45:00,78.4,66.1,30.08,East,90,0.0,0.7,66,0.00,,,0.00,pywws,2013-07-10 05:45:00,
2013-07-10 01:51:00,78.3,65.9,30.08,South,180,0.7,2.2,66,0.00,,,0.00,pywws,2013-07-10 05:51:00,
2013-07-10 01:56:00,77.9,66.0,30.08,SW,225,0.7,2.2,67,0.00,,,0.00,pywws,2013-07-10 05:56:00,
2013-07-10 02:02:00,77.7,66.3,30.08,SW,225,1.6,3.1,68,0.00,,,0.00,pywws,2013-07-10 06:02:00,
2013-07-10 02:08:00,77.5,66.1,30.08,NW,315,2.2,4.5,68,0.00,,,0.00,pywws,2013-07-10 06:08:00,
2013-07-10 02:13:00,77.4,66.4,30.08,SW,225,0.7,1.6,69,0.00,,,0.00,pywws,2013-07-10 06:13:00,
2013-07-10 02:19:00,77.2,66.2,30.08,South,180,0.7,2.2,69,0.00,,,0.00,pywws,2013-07-10 06:19:00,
2013-07-10 02:24:00,77.0,66.4,30.07,SE,135,0.0,0.0,70,0.00,,,0.00,pywws,2013-07-10 06:24:00,
2013-07-10 02:30:00,77.0,66.4,30.07,South,180,1.6,4.5,70,0.00,,,0.00,pywws,2013-07-10 06:30:00,
2013-07-10 02:36:00,76.8,66.7,30.07,SE,135,0.0,1.6,71,0.00,,,0.00,pywws,2013-07-10 06:36:00,
2013-07-10 02:41:00,76.8,66.7,30.06,South,180,2.2,3.1,71,0.00,,,0.00,pywws,2013-07-10 06:41:00,
2013-07-10 02:47:00,76.8,66.7,30.06,West,270,0.0,1.6,71,0.00,,,0.00,pywws,2013-07-10 06:47:00,
2013-07-10 02:52:00,76.8,66.7,30.06,West,270,0.0,0.0,71,0.00,,,0.00,pywws,2013-07-10 06:52:00,
2013-07-10 02:58:00,76.8,66.7,30.06,NW,315,0.7,3.1,71,0.00,,,0.00,pywws,2013-07-10 06:58:00,
2013-07-10 03:04:00,76.8,66.7,30.06,SW,225,0.0,0.7,71,0.00,,,0.00,pywws,2013-07-10 07:04:00,
2013-07-10 03:09:00,76.6,66.5,30.06,NE,45,0.0,0.7,71,0.00,,,0.00,pywws,2013-07-10 07:09:00,
2013-07-10 03:15:00,76.6,66.9,30.06,SW,225,0.0,0.0,72,0.00,,,0.00,pywws,2013-07-10 07:15:00,
2013-07-10 03:20:00,76.5,66.7,30.06,East,90,0.0,1.6,72,0.00,,,0.00,pywws,2013-07-10 07:20:00,
2013-07-10 03:26:00,76.5,66.7,30.06,South,180,3.1,4.5,72,0.00,,,0.00,pywws,2013-07-10 07:26:00,
2013-07-10 03:32:00,76.3,66.6,30.06,West,270,0.0,1.6,72,0.00,,,0.00,pywws,2013-07-10 07:32:00,
2013-07-10 03:37:00,76.1,66.8,30.06,SW,225,0.7,3.1,73,0.00,,,0.00,pywws,2013-07-10 07:37:00,
2013-07-10 03:43:00,75.9,66.6,30.06,West,270,1.6,3.1,73,0.00,,,0.00,pywws,2013-07-10 07:43:00,
2013-07-10 03:48:00,75.7,66.8,30.06,South,180,0.7,2.2,74,0.00,,,0.00,pywws,2013-07-10 07:48:00,
2013-07-10 03:54:00,75.7,66.8,30.06,South,180,2.2,3.8,74,0.00,,,0.00,pywws,2013-07-10 07:54:00,
2013-07-10 04:00:00,75.6,66.7,30.05,South,180,0.7,1.6,74,0.00,,,0.00,pywws,2013-07-10 08:00:00,
2013-07-10 04:06:00,75.6,66.7,30.06,West,270,0.7,2.2,74,0.00,,,0.00,pywws,2013-07-10 08:06:00,
2013-07-10 04:12:00,75.4,66.5,30.06,SSW,202,0.7,1.6,74,0.00,,,0.00,pywws,2013-07-10 08:12:00,
2013-07-10 04:17:00,75.4,66.5,30.05,ESE,112,0.7,2.2,74,0.00,,,0.00,pywws,2013-07-10 08:17:00,
2013-07-10 04:23:00,75.2,66.7,30.05,South,180,0.7,1.6,75,0.00,,,0.00,pywws,2013-07-10 08:23:00,
2013-07-10 04:28:00,75.2,66.7,30.04,East,90,3.1,4.5,75,0.00,,,0.00,pywws,2013-07-10 08:28:00,
2013-07-10 04:34:00,75.2,66.7,30.05,East,90,0.0,1.6,75,0.00,,,0.00,pywws,2013-07-10 08:34:00,
2013-07-10 04:40:00,75.0,67.3,30.05,SE,135,0.0,1.6,77,0.00,,,0.00,pywws,2013-07-10 08:40:00,
2013-07-10 04:45:00,75.0,67.3,30.05,SW,225,0.0,0.7,77,0.00,,,0.00,pywws,2013-07-10 08:45:00,
2013-07-10 04:51:00,75.0,67.3,30.05,NE,45,0.7,1.6,77,0.00,,,0.00,pywws,2013-07-10 08:51:00,
2013-07-10 04:56:00,75.0,67.3,30.05,NE,45,0.7,1.6,77,0.00,,,0.00,pywws,2013-07-10 08:56:00,
2013-07-10 05:02:00,75.0,67.7,30.05,SW,225,3.1,5.4,78,0.00,,,0.00,pywws,2013-07-10 09:02:00,
2013-07-10 05:08:00,75.0,67.7,30.05,East,90,0.7,2.2,78,0.00,,,0.00,pywws,2013-07-10 09:08:00,
2013-07-10 05:13:00,75.0,67.7,30.06,NW,315,1.6,3.1,78,0.00,,,0.00,pywws,2013-07-10 09:13:00,
2013-07-10 05:19:00,75.2,67.5,30.06,SW,225,1.6,3.1,77,0.00,,,0.00,pywws,2013-07-10 09:19:00,
2013-07-10 05:24:00,75.2,67.5,30.05,South,180,0.7,1.6,77,0.00,,,0.00,pywws,2013-07-10 09:24:00,
2013-07-10 05:30:00,75.2,67.5,30.06,SE,135,0.7,1.6,77,0.00,,,0.00,pywws,2013-07-10 09:30:00,
2013-07-10 05:36:00,75.2,67.5,30.06,SE,135,1.6,3.1,77,0.00,,,0.00,pywws,2013-07-10 09:36:00,
2013-07-10 05:41:00,75.2,67.5,30.06,South,180,0.0,0.0,77,0.00,,,0.00,pywws,2013-07-10 09:41:00,
2013-07-10 05:47:00,75.2,67.5,30.06,SW,225,0.0,0.0,77,0.00,,,0.00,pywws,2013-07-10 09:47:00,
2013-07-10 05:52:00,75.2,67.5,30.06,South,180,0.0,0.7,77,0.00,,,0.00,pywws,2013-07-10 09:52:00,
2013-07-10 05:58:00,75.0,67.7,30.06,East,90,0.0,0.7,78,0.00,,,0.00,pywws,2013-07-10 09:58:00,
2013-07-10 06:04:00,75.0,67.7,30.06,East,90,0.0,0.0,78,0.00,,,0.00,pywws,2013-07-10 10:04:00,
2013-07-10 06:09:00,74.8,67.5,30.06,South,180,1.6,2.2,78,0.00,,,0.00,pywws,2013-07-10 10:09:00,
2013-07-10 06:15:00,74.7,67.7,30.05,SE,135,0.0,0.7,79,0.00,,,0.00,pywws,2013-07-10 10:15:00,
2013-07-10 06:20:00,74.7,67.7,30.05,NE,45,0.0,0.7,79,0.00,,,0.00,pywws,2013-07-10 10:20:00,
2013-07-10 06:26:00,74.7,67.7,30.05,WNW,292,0.0,0.7,79,0.00,,,0.00,pywws,2013-07-10 10:26:00,
2013-07-10 06:32:00,74.7,67.7,30.05,SW,225,0.0,0.7,79,0.00,,,0.00,pywws,2013-07-10 10:32:00,
2013-07-10 06:37:00,74.8,68.2,30.05,East,90,0.0,0.0,80,0.00,,,0.00,pywws,2013-07-10 10:37:00,
2013-07-10 06:43:00,75.0,68.4,30.05,SE,135,0.7,1.6,80,0.00,,,0.00,pywws,2013-07-10 10:43:00,
2013-07-10 06:48:00,75.0,68.4,30.05,SSW,202,3.1,5.4,80,0.00,,,0.00,pywws,2013-07-10 10:48:00,
2013-07-10 06:54:00,75.4,68.4,30.05,East,90,0.7,2.2,79,0.00,,,0.00,pywws,2013-07-10 10:54:00,
2013-07-10 07:00:00,75.7,68.8,30.05,South,180,0.7,1.6,79,0.00,,,0.00,pywws,2013-07-10 11:00:00,
2013-07-10 07:06:00,75.9,68.9,30.05,South,180,0.0,1.6,79,0.00,,,0.00,pywws,2013-07-10 11:06:00,
2013-07-10 07:12:00,76.3,69.3,30.05,SW,225,3.1,3.8,79,0.00,,,0.00,pywws,2013-07-10 11:12:00,
2013-07-10 07:17:00,76.5,69.1,30.05,West,270,1.6,3.1,78,0.00,,,0.00,pywws,2013-07-10 11:17:00,
2013-07-10 07:23:00,76.6,69.3,30.05,SE,135,0.0,0.7,78,0.00,,,0.00,pywws,2013-07-10 11:23:00,
2013-07-10 07:28:00,77.0,69.2,30.05,East,90,1.6,3.1,77,0.00,,,0.00,pywws,2013-07-10 11:28:00,
2013-07-10 07:34:00,77.2,69.4,30.05,SW,225,5.4,6.9,77,0.00,,,0.00,pywws,2013-07-10 11:34:00,
2013-07-10 07:40:00,77.5,69.7,30.05,SW,225,1.6,3.8,77,0.00,,,0.00,pywws,2013-07-10 11:40:00,
2013-07-10 07:45:00,77.7,69.9,30.04,SW,225,4.5,7.6,77,0.00,,,0.00,pywws,2013-07-10 11:45:00,
2013-07-10 07:51:00,77.9,69.7,30.04,SW,225,3.8,5.4,76,0.00,,,0.00,pywws,2013-07-10 11:51:00,
2013-07-10 07:56:00,78.1,69.9,30.04,NE,45,0.0,0.0,76,0.00,,,0.00,pywws,2013-07-10 11:56:00,
2013-07-10 08:02:00,78.4,70.2,30.04,West,270,3.8,5.4,76,0.00,,,0.00,pywws,2013-07-10 12:02:00,
2013-07-10 08:08:00,78.6,70.0,30.04,SW,225,0.7,3.8,75,0.00,,,0.00,pywws,2013-07-10 12:08:00,
2013-07-10 08:13:00,78.8,69.8,30.04,South,180,3.1,3.8,74,0.00,,,0.00,pywws,2013-07-10 12:13:00,
2013-07-10 08:19:00,79.0,70.0,30.04,East,90,1.6,3.1,74,0.00,,,0.00,pywws,2013-07-10 12:19:00,
2013-07-10 08:24:00,79.2,70.1,30.04,WSW,248,3.8,5.4,74,0.00,,,0.00,pywws,2013-07-10 12:24:00,
2013-07-10 08:30:00,79.3,70.3,30.04,West,270,0.7,1.6,74,0.00,,,0.00,pywws,2013-07-10 12:30:00,
2013-07-10 08:36:00,79.3,70.3,30.04,SW,225,1.6,3.1,74,0.00,,,0.00,pywws,2013-07-10 12:36:00,
2013-07-10 08:42:00,79.7,70.7,30.04,SE,135,0.0,1.6,74,0.00,,,0.00,pywws,2013-07-10 12:42:00,
2013-07-10 08:48:00,80.1,71.0,30.03,SSW,202,0.7,2.2,74,0.00,,,0.00,pywws,2013-07-10 12:48:00,
2013-07-10 08:53:00,80.4,71.0,30.03,WSW,248,3.1,5.4,73,0.00,,,0.00,pywws,2013-07-10 12:53:00,
2013-07-10 08:59:00,80.6,70.7,30.03,West,270,1.6,2.2,72,0.00,,,0.00,pywws,2013-07-10 12:59:00,
2013-07-10 09:04:00,81.0,70.6,30.03,SW,225,3.8,4.5,71,0.00,,,0.00,pywws,2013-07-10 13:04:00,
2013-07-10 09:10:00,81.0,70.2,30.03,NW,315,2.2,3.8,70,0.00,,,0.00,pywws,2013-07-10 13:10:00,
2013-07-10 09:16:00,81.0,70.6,30.02,NE,45,0.7,1.6,71,0.00,,,0.00,pywws,2013-07-10 13:16:00,
2013-07-10 09:21:00,81.3,71.0,30.02,NW,315,1.6,2.2,71,0.00,,,0.00,pywws,2013-07-10 13:21:00,
2013-07-10 09:27:00,81.7,70.9,30.02,West,270,3.1,4.5,70,0.00,,,0.00,pywws,2013-07-10 13:27:00,
2013-07-10 09:32:00,82.4,71.2,30.02,ESE,112,0.7,1.6,69,0.00,,,0.00,pywws,2013-07-10 13:32:00,
2013-07-10 09:38:00,82.8,71.1,30.02,SW,225,4.5,6.9,68,0.00,,,0.00,pywws,2013-07-10 13:38:00,
2013-07-10 09:44:00,82.8,71.1,30.02,SW,225,3.1,5.4,68,0.00,,,0.00,pywws,2013-07-10 13:44:00,
2013-07-10 09:49:00,82.9,70.8,30.02,SSW,202,0.7,2.2,67,0.00,,,0.00,pywws,2013-07-10 13:49:00,
2013-07-10 09:55:00,83.3,71.2,30.02,SW,225,1.6,3.1,67,0.00,,,0.00,pywws,2013-07-10 13:55:00,
2013-07-10 10:00:00,83.7,71.5,30.02,West,270,4.5,6.9,67,0.00,,,0.00,pywws,2013-07-10 14:00:00,
2013-07-10 10:06:00,83.7,71.1,30.02,WNW,292,3.8,5.4,66,0.00,,,0.00,pywws,2013-07-10 14:06:00,
2013-07-10 10:12:00,83.7,71.1,30.02,SW,225,3.1,7.6,66,0.00,,,0.00,pywws,2013-07-10 14:12:00,
2013-07-10 10:17:00,84.0,71.4,30.02,NW,315,5.4,9.2,66,0.00,,,0.00,pywws,2013-07-10 14:17:00,
2013-07-10 10:23:00,84.6,71.5,30.01,South,180,3.1,3.8,65,0.00,,,0.00,pywws,2013-07-10 14:23:00,
2013-07-10 10:28:00,85.5,71.9,30.02,SW,225,9.2,11.4,64,0.00,,,0.00,pywws,2013-07-10 14:28:00,
2013-07-10 10:34:00,85.8,71.7,30.02,SW,225,5.4,6.9,63,0.00,,,0.00,pywws,2013-07-10 14:34:00,
2013-07-10 10:40:00,85.5,70.9,30.02,SW,225,6.0,9.2,62,0.00,,,0.00,pywws,2013-07-10 14:40:00,
2013-07-10 10:45:00,85.1,70.6,30.02,West,270,6.0,7.6,62,0.00,,,0.00,pywws,2013-07-10 14:45:00,
2013-07-10 10:51:00,84.4,70.4,30.02,SW,225,5.4,9.2,63,0.00,,,0.00,pywws,2013-07-10 14:51:00,
2013-07-10 10:56:00,84.0,71.0,30.02,South,180,6.0,9.2,65,0.00,,,0.00,pywws,2013-07-10 14:56:00,
2013-07-10 11:02:00,84.0,71.0,30.02,WSW,248,6.0,9.2,65,0.00,,,0.00,pywws,2013-07-10 15:02:00,
2013-07-10 11:08:00,84.0,71.0,30.01,West,270,6.9,9.8,65,0.00,,,0.00,pywws,2013-07-10 15:08:00,
2013-07-10 11:13:00,84.4,70.8,30.01,WSW,248,5.4,9.2,64,0.00,,,0.00,pywws,2013-07-10 15:13:00,
2013-07-10 11:19:00,85.1,71.5,30.01,WSW,248,7.6,11.4,64,0.00,,,0.00,pywws,2013-07-10 15:19:00,
2013-07-10 11:26:00,84.6,70.1,30.01,WSW,248,1.6,3.1,62,0.00,,,0.00,pywws,2013-07-10 15:26:00,
2013-07-10 11:31:00,84.2,70.7,30.01,South,180,3.8,4.5,64,0.00,,,0.00,pywws,2013-07-10 15:31:00,
2013-07-10 11:36:00,83.8,70.8,30.01,South,180,6.0,8.3,65,0.00,,,0.00,pywws,2013-07-10 15:36:00,
2013-07-10 11:41:00,83.8,70.8,30.01,SW,225,5.4,6.9,65,0.00,,,0.00,pywws,2013-07-10 15:41:00,
2013-07-10 11:46:00,84.2,70.7,30.00,NW,315,6.0,9.8,64,0.00,,,0.00,pywws,2013-07-10 15:46:00,
2013-07-10 11:51:00,84.0,70.5,30.00,South,180,1.6,3.1,64,0.00,,,0.00,pywws,2013-07-10 15:51:00,
2013-07-10 11:56:00,84.0,71.0,30.00,South,180,1.6,3.1,65,0.00,,,0.00,pywws,2013-07-10 15:56:00,
2013-07-10 12:01:00,84.0,71.0,29.99,SW,225,3.8,6.0,65,0.00,,,0.00,pywws,2013-07-10 16:01:00,
2013-07-10 12:06:00,84.0,71.0,29.99,SW,225,5.4,6.9,65,0.00,,,0.00,pywws,2013-07-10 16:06:00,
2013-07-10 12:11:00,84.0,71.0,29.99,SSW,202,6.9,12.1,65,0.00,,,0.00,pywws,2013-07-10 16:11:00,
2013-07-10 12:16:00,84.2,70.7,29.99,SW,225,7.6,10.7,64,0.00,,,0.00,pywws,2013-07-10 16:16:00,
2013-07-10 12:21:00,84.4,70.8,29.99,NW,315,5.4,9.2,64,0.00,,,0.00,pywws,2013-07-10 16:21:00,
2013-07-10 12:26:00,84.9,71.4,29.99,SW,225,6.0,11.4,64,0.00,,,0.00,pywws,2013-07-10 16:26:00,
2013-07-10 12:31:00,85.6,72.0,29.99,South,180,6.0,9.2,64,0.00,,,0.00,pywws,2013-07-10 16:31:00,
2013-07-10 12:36:00,85.3,71.2,29.99,WSW,248,7.6,11.4,63,0.00,,,0.00,pywws,2013-07-10 16:36:00,
2013-07-10 12:41:00,84.9,71.4,29.98,SW,225,6.0,8.3,64,0.00,,,0.00,pywws,2013-07-10 16:41:00,
2013-07-10 12:46:00,85.6,72.0,29.98,SW,225,2.2,3.8,64,0.00,,,0.00,pywws,2013-07-10 16:46:00,
2013-07-10 12:51:00,86.4,72.2,29.98,SW,225,2.2,3.8,63,0.00,,,0.00,pywws,2013-07-10 16:51:00,
2013-07-10 12:56:00,87.1,72.4,29.98,South,180,4.5,6.0,62,0.00,,,0.00,pywws,2013-07-10 16:56:00,
2013-07-10 13:01:00,87.6,73.0,29.98,West,270,6.0,9.8,62,0.00,,,0.00,pywws,2013-07-10 17:01:00,
2013-07-10 13:06:00,88.2,72.0,29.97,East,90,3.8,5.4,59,0.00,,,0.00,pywws,2013-07-10 17:06:00,
2013-07-10 13:11:00,88.3,71.1,29.97,NW,315,6.0,7.6,57,0.00,,,0.00,pywws,2013-07-10 17:11:00,
2013-07-10 13:16:00,88.7,71.5,29.97,South,180,6.9,9.8,57,0.00,,,0.00,pywws,2013-07-10 17:16:00,
2013-07-10 13:21:00,87.8,70.1,29.96,SW,225,6.0,9.2,56,0.00,,,0.00,pywws,2013-07-10 17:21:00,
2013-07-10 13:26:00,88.2,71.5,29.97,WSW,248,7.6,13.6,58,0.00,,,0.00,pywws,2013-07-10 17:26:00,
2013-07-10 13:31:00,88.7,71.5,29.96,South,180,3.8,6.9,57,0.00,,,0.00,pywws,2013-07-10 17:31:00,
2013-07-10 13:36:00,89.2,71.5,29.96,SW,225,9.2,13.6,56,0.00,,,0.00,pywws,2013-07-10 17:36:00,
2013-07-10 13:41:00,88.7,70.4,29.96,SW,225,6.0,7.6,55,0.00,,,0.00,pywws,2013-07-10 17:41:00,
2013-07-10 13:46:00,87.6,70.5,29.96,NW,315,9.8,15.2,57,0.00,,,0.00,pywws,2013-07-10 17:46:00,
2013-07-10 13:51:00,86.4,70.3,29.96,NW,315,6.9,12.1,59,0.00,,,0.00,pywws,2013-07-10 17:51:00,
2013-07-10 13:56:00,85.1,71.5,29.96,NW,315,2.2,4.5,64,0.00,,,0.00,pywws,2013-07-10 17:56:00,
2013-07-10 14:01:00,84.4,71.8,29.95,NW,315,7.6,9.8,66,0.00,,,0.00,pywws,2013-07-10 18:01:00,
2013-07-10 14:06:00,84.0,71.9,29.95,West,270,2.2,3.8,67,0.00,,,0.00,pywws,2013-07-10 18:06:00,
2013-07-10 14:11:00,84.2,71.6,29.95,NW,315,4.5,7.6,66,0.00,,,0.00,pywws,2013-07-10 18:11:00,
2013-07-10 14:16:00,85.3,72.2,29.94,WNW,292,5.4,10.7,65,0.00,,,0.00,pywws,2013-07-10 18:16:00,
2013-07-10 14:21:00,86.5,70.0,29.95,South,180,7.6,13.6,58,0.00,,,0.00,pywws,2013-07-10 18:21:00,
2013-07-10 14:26:00,86.9,69.8,29.95,WNW,292,7.6,11.4,57,0.00,,,0.00,pywws,2013-07-10 18:26:00,
2013-07-10 14:31:00,87.3,70.1,29.94,South,180,5.4,8.3,57,0.00,,,0.00,pywws,2013-07-10 18:31:00,
2013-07-10 14:36:00,87.6,69.9,29.94,SW,225,5.4,8.3,56,0.00,,,0.00,pywws,2013-07-10 18:36:00,
2013-07-10 14:41:00,87.6,68.9,29.95,West,270,7.6,10.7,54,0.00,,,0.00,pywws,2013-07-10 18:41:00,
2013-07-10 14:46:00,87.8,68.5,29.94,SW,225,12.1,19.0,53,0.00,,,0.00,pywws,2013-07-10 18:46:00,
2013-07-10 14:51:00,87.8,68.5,29.93,SW,225,3.8,6.0,53,0.00,,,0.00,pywws,2013-07-10 18:51:00,
2013-07-10 14:56:00,88.2,69.4,29.94,North,0,10.7,15.9,54,0.00,,,0.00,pywws,2013-07-10 18:56:00,
2013-07-10 15:01:00,88.3,69.5,29.93,SW,225,6.9,10.7,54,0.00,,,0.00,pywws,2013-07-10 19:01:00,
2013-07-10 15:06:00,88.2,69.4,29.93,NW,315,6.0,13.0,54,0.00,,,0.00,pywws,2013-07-10 19:06:00,
2013-07-10 15:11:00,87.8,69.0,29.93,NW,315,9.2,16.8,54,0.00,,,0.00,pywws,2013-07-10 19:11:00,
2013-07-10 15:16:00,88.0,68.7,29.93,North,0,8.3,13.0,53,0.00,,,0.00,pywws,2013-07-10 19:16:00,
2013-07-10 15:21:00,87.8,68.5,29.93,SW,225,11.4,15.9,53,0.00,,,0.00,pywws,2013-07-10 19:21:00,
2013-07-10 15:26:00,87.6,68.9,29.93,SW,225,3.8,6.0,54,0.00,,,0.00,pywws,2013-07-10 19:26:00,
2013-07-10 15:31:00,87.8,68.5,29.93,South,180,9.2,11.4,53,0.00,,,0.00,pywws,2013-07-10 19:31:00,
2013-07-10 15:36:00,88.0,69.2,29.93,North,0,6.0,11.4,54,0.00,,,0.00,pywws,2013-07-10 19:36:00,
2013-07-10 15:41:00,88.2,68.8,29.93,SW,225,7.6,10.7,53,0.00,,,0.00,pywws,2013-07-10 19:41:00,
2013-07-10 15:53:00,88.0,68.7,29.92,West,270,6.0,7.6,53,0.00,,,0.00,pywws,2013-07-10 19:53:00,
2013-07-10 15:58:00,88.5,69.2,29.92,South,180,6.9,8.3,53,0.00,,,0.00,pywws,2013-07-10 19:58:00,
2013-07-10 16:04:00,88.9,69.5,29.92,SW,225,6.9,8.3,53,0.00,,,0.00,pywws,2013-07-10 20:04:00,
2013-07-10 16:09:00,88.7,69.3,29.92,South,180,9.8,14.5,53,0.00,,,0.00,pywws,2013-07-10 20:09:00,
2013-07-10 16:15:00,88.7,68.8,29.92,SSW,202,9.2,13.6,52,0.00,,,0.00,pywws,2013-07-10 20:15:00,
2013-07-10 16:20:00,88.9,68.9,29.92,SW,225,13.6,17.5,52,0.00,,,0.00,pywws,2013-07-10 20:20:00,
2013-07-10 16:26:00,88.7,68.8,29.92,WSW,248,6.9,11.4,52,0.00,,,0.00,pywws,2013-07-10 20:26:00,
2013-07-10 16:32:00,88.7,68.8,29.92,NW,315,5.4,9.2,52,0.00,,,0.00,pywws,2013-07-10 20:32:00,
2013-07-10 16:37:00,88.7,68.8,29.91,NW,315,9.2,13.0,52,0.00,,,0.00,pywws,2013-07-10 20:37:00,
2013-07-10 16:43:00,88.7,68.2,29.92,SW,225,9.2,13.6,51,0.00,,,0.00,pywws,2013-07-10 20:43:00,
2013-07-10 16:48:00,88.7,68.2,29.91,SW,225,6.0,9.8,51,0.00,,,0.00,pywws,2013-07-10 20:48:00,
2013-07-10 16:54:00,88.7,67.6,29.91,WNW,292,7.6,10.7,50,0.00,,,0.00,pywws,2013-07-10 20:54:00,
2013-07-10 17:00:00,88.9,67.8,29.91,SW,225,8.3,15.2,50,0.00,,,0.00,pywws,2013-07-10 21:00:00,
2013-07-10 17:06:00,88.9,67.2,29.91,West,270,6.0,8.3,49,0.00,,,0.00,pywws,2013-07-10 21:06:00,
2013-07-10 17:07:00,88.7,67.0,29.91,WNW,292,7.6,13.6,49,0.00,,,0.00,pywws,2013-07-10 21:07:00,
2013-07-10 17:12:00,88.3,66.7,29.90,West,270,9.8,17.5,49,0.00,,,0.00,pywws,2013-07-10 21:12:00,
2013-07-10 17:18:00,88.0,67.0,29.90,SW,225,7.6,13.0,50,0.00,,,0.00,pywws,2013-07-10 21:18:00,
2013-07-10 17:24:00,88.2,67.1,29.90,SW,225,2.2,6.9,50,0.00,,,0.00,pywws,2013-07-10 21:24:00,
2013-07-10 17:29:00,88.5,66.9,29.90,WSW,248,4.5,8.3,49,0.00,,,0.00,pywws,2013-07-10 21:29:00,
2013-07-10 17:35:00,88.7,67.6,29.90,NW,315,5.4,6.9,50,0.00,,,0.00,pywws,2013-07-10 21:35:00,
2013-07-10 17:40:00,88.7,67.6,29.89,West,270,10.7,12.1,50,0.00,,,0.00,pywws,2013-07-10 21:40:00,
2013-07-10 17:46:00,88.9,67.8,29.89,WSW,248,6.0,7.6,50,0.00,,,0.00,pywws,2013-07-10 21:46:00,
2013-07-10 17:52:00,88.9,67.8,29.89,SW,225,9.2,12.1,50,0.00,,,0.00,pywws,2013-07-10 21:52:00,
2013-07-10 17:57:00,88.5,67.5,29.90,WSW,248,5.4,9.8,50,0.00,,,0.00,pywws,2013-07-10 21:57:00,
2013-07-10 18:03:00,88.0,66.4,29.89,South,180,6.0,9.2,49,0.00,,,0.00,pywws,2013-07-10 22:03:00,
2013-07-10 18:08:00,87.6,67.2,29.89,WSW,248,8.3,13.0,51,0.00,,,0.00,pywws,2013-07-10 22:08:00,
2013-07-10 18:14:00,86.9,67.1,29.90,WSW,248,9.2,12.1,52,0.00,,,0.00,pywws,2013-07-10 22:14:00,
2013-07-10 18:20:00,86.9,67.1,29.90,WSW,248,5.4,10.7,52,0.00,,,0.00,pywws,2013-07-10 22:20:00,
2013-07-10 18:25:00,87.1,67.3,29.90,SW,225,5.4,10.7,52,0.00,,,0.00,pywws,2013-07-10 22:25:00,
2013-07-10 18:31:00,86.9,67.1,29.91,South,180,7.6,9.8,52,0.00,,,0.00,pywws,2013-07-10 22:31:00,
2013-07-10 18:37:00,86.7,67.5,29.92,NW,315,6.9,9.2,53,0.00,,,0.00,pywws,2013-07-10 22:37:00,
2013-07-10 18:43:00,86.9,67.7,29.91,South,180,9.2,13.0,53,0.00,,,0.00,pywws,2013-07-10 22:43:00,
2013-07-10 18:48:00,86.9,67.7,29.92,NW,315,6.9,10.7,53,0.00,,,0.00,pywws,2013-07-10 22:48:00,
2013-07-10 18:54:00,86.9,67.7,29.91,SW,225,6.0,9.2,53,0.00,,,0.00,pywws,2013-07-10 22:54:00,
2013-07-10 19:00:00,87.3,68.0,29.92,SW,225,4.5,8.3,53,0.00,,,0.00,pywws,2013-07-10 23:00:00,
2013-07-10 19:06:00,87.8,67.9,29.93,WSW,248,4.5,6.9,52,0.00,,,0.00,pywws,2013-07-10 23:06:00,
2013-07-10 19:12:00,88.5,67.5,29.93,NW,315,6.0,9.8,50,0.00,,,0.00,pywws,2013-07-10 23:12:00,
2013-07-10 19:17:00,88.7,67.6,29.93,West,270,6.9,9.2,50,0.00,,,0.00,pywws,2013-07-10 23:17:00,
2013-07-10 19:23:00,88.2,67.1,29.93,SW,225,4.5,7.6,50,0.00,,,0.00,pywws,2013-07-10 23:23:00,
2013-07-10 19:28:00,87.6,67.8,29.93,SW,225,3.1,4.5,52,0.00,,,0.00,pywws,2013-07-10 23:28:00,
2013-07-10 19:34:00,86.9,67.7,29.93,South,180,3.1,4.5,53,0.00,,,0.00,pywws,2013-07-10 23:34:00,
2013-07-10 19:40:00,86.4,67.2,29.92,SW,225,6.9,9.8,53,0.00,,,0.00,pywws,2013-07-10 23:40:00,
2013-07-10 19:45:00,85.6,67.1,29.93,West,270,7.6,9.2,54,0.00,,,0.00,pywws,2013-07-10 23:45:00,
2013-07-10 19:51:00,85.3,67.3,29.93,ESE,112,3.8,6.0,55,0.00,,,0.00,pywws,2013-07-10 23:51:00,
2013-07-10 19:56:00,84.9,66.9,29.93,SW,225,3.1,5.4,55,0.00,,,0.00,pywws,2013-07-10 23:56:00,
2013-07-10 20:02:00,84.7,66.8,29.93,West,270,5.4,8.3,55,0.00,,,0.00,pywws,2013-07-11 00:02:00,
2013-07-10 20:08:00,84.6,66.6,29.93,SSW,202,3.8,6.0,55,0.00,,,0.00,pywws,2013-07-11 00:08:00,
2013-07-10 20:13:00,84.4,66.9,29.93,South,180,5.4,8.3,56,0.00,,,0.00,pywws,2013-07-11 00:13:00,
2013-07-10 20:19:00,84.2,66.8,29.93,SW,225,4.5,6.9,56,0.00,,,0.00,pywws,2013-07-11 00:19:00,
2013-07-10 20:24:00,84.0,67.1,29.93,West,270,5.4,7.6,57,0.00,,,0.00,pywws,2013-07-11 00:24:00,
2013-07-10 20:30:00,83.8,67.0,29.93,SW,225,2.2,4.5,57,0.00,,,0.00,pywws,2013-07-11 00:30:00,
2013-07-10 20:36:00,83.7,67.3,29.93,West,270,6.0,8.3,58,0.00,,,0.00,pywws,2013-07-11 00:36:00,
2013-07-10 20:42:00,83.7,67.3,29.93,SW,225,6.9,10.7,58,0.00,,,0.00,pywws,2013-07-11 00:42:00,
2013-07-10 20:48:00,83.7,67.3,29.93,SW,225,2.2,3.8,58,0.00,,,0.00,pywws,2013-07-11 00:48:00,
2013-07-10 20:53:00,83.5,67.1,29.93,SW,225,2.2,4.5,58,0.00,,,0.00,pywws,2013-07-11 00:53:00,
2013-07-10 20:59:00,83.5,67.1,29.92,South,180,3.1,4.5,58,0.00,,,0.00,pywws,2013-07-11 00:59:00,
2013-07-10 21:04:00,83.3,67.0,29.93,SW,225,3.1,5.4,58,0.00,,,0.00,pywws,2013-07-11 01:04:00,
2013-07-10 21:10:00,83.3,67.4,29.93,SW,225,1.6,4.5,59,0.00,,,0.00,pywws,2013-07-11 01:10:00,
2013-07-10 21:16:00,83.3,67.4,29.93,SW,225,3.8,6.9,59,0.00,,,0.00,pywws,2013-07-11 01:16:00,
2013-07-10 21:22:00,83.1,67.3,29.94,NW,315,3.1,4.5,59,0.00,,,0.00,pywws,2013-07-11 01:22:00,
2013-07-10 21:28:00,82.9,67.1,29.94,NW,315,3.8,6.9,59,0.00,,,0.00,pywws,2013-07-11 01:28:00,
2013-07-10 21:33:00,82.9,67.6,29.94,South,180,3.8,6.0,60,0.00,,,0.00,pywws,2013-07-11 01:33:00,
2013-07-10 21:39:00,82.9,67.6,29.94,SSW,202,6.0,9.8,60,0.00,,,0.00,pywws,2013-07-11 01:39:00,
2013-07-10 21:44:00,82.9,67.6,29.93,West,270,4.5,8.3,60,0.00,,,0.00,pywws,2013-07-11 01:44:00,
2013-07-10 21:50:00,82.9,67.6,29.94,West,270,5.4,7.6,60,0.00,,,0.00,pywws,2013-07-11 01:50:00,
2013-07-10 21:56:00,82.8,67.9,29.94,SW,225,4.5,6.9,61,0.00,,,0.00,pywws,2013-07-11 01:56:00,
2013-07-10 22:01:00,82.8,67.9,29.94,SW,225,3.1,4.5,61,0.00,,,0.00,pywws,2013-07-11 02:01:00,
2013-07-10 22:09:00,82.6,67.7,29.93,South,180,2.2,4.5,61,0.00,,,0.00,pywws,2013-07-11 02:09:00,
2013-07-10 22:15:00,82.4,67.6,29.93,SE,135,0.7,1.6,61,0.00,,,0.00,pywws,2013-07-11 02:15:00,
2013-07-10 22:20:00,82.4,68.0,29.93,SW,225,4.5,6.9,62,0.00,,,0.00,pywws,2013-07-11 02:20:00,
2013-07-10 22:26:00,82.4,68.0,29.93,WSW,248,3.1,5.4,62,0.00,,,0.00,pywws,2013-07-11 02:26:00,
2013-07-10 22:32:00,82.2,68.3,29.93,SW,225,6.0,8.3,63,0.00,,,0.00,pywws,2013-07-11 02:32:00,
2013-07-10 22:37:00,82.2,68.3,29.93,West,270,5.4,8.3,63,0.00,,,0.00,pywws,2013-07-11 02:37:00,
2013-07-10 22:43:00,82.2,68.3,29.93,SW,225,2.2,3.8,63,0.00,,,0.00,pywws,2013-07-11 02:43:00,
2013-07-10 22:48:00,82.0,68.2,29.93,NW,315,3.8,6.0,63,0.00,,,0.00,pywws,2013-07-11 02:48:00,
2013-07-10 22:54:00,82.0,68.2,29.93,WSW,248,5.4,10.7,63,0.00,,,0.00,pywws,2013-07-11 02:54:00,
2013-07-10 23:00:00,82.0,68.6,29.92,WSW,248,3.8,6.9,64,0.00,,,0.00,pywws,2013-07-11 03:00:00,
2013-07-10 23:06:00,82.0,68.6,29.92,NW,315,3.8,5.4,64,0.00,,,0.00,pywws,2013-07-11 03:06:00,
2013-07-10 23:12:00,82.0,68.6,29.92,West,270,4.5,6.9,64,0.00,,,0.00,pywws,2013-07-11 03:12:00,
2013-07-10 23:17:00,81.7,68.3,29.91,SW,225,1.6,5.4,64,0.00,,,0.00,pywws,2013-07-11 03:17:00,
2013-07-10 23:23:00,81.7,68.3,29.92,SW,225,3.8,5.4,64,0.00,,,0.00,pywws,2013-07-11 03:23:00,
2013-07-10 23:29:00,81.7,68.7,29.91,SW,225,3.8,6.0,65,0.00,,,0.00,pywws,2013-07-11 03:29:00,
2013-07-10 23:35:00,81.7,68.7,29.91,SW,225,4.5,6.9,65,0.00,,,0.00,pywws,2013-07-11 03:35:00,
2013-07-10 23:40:00,81.7,68.7,29.92,SW,225,3.8,9.8,65,0.00,,,0.00,pywws,2013-07-11 03:40:00,
2013-07-10 23:46:00,81.5,68.6,29.92,SW,225,5.4,8.3,65,0.00,,,0.00,pywws,2013-07-11 03:46:00,
2013-07-10 23:52:00,81.5,69.0,29.91,SW,225,2.2,3.8,66,0.00,,,0.00,pywws,2013-07-11 03:52:00,
2013-07-10 23:57:00,81.5,69.0,29.91,SW,225,5.4,9.8,66,0.00,,,0.00,pywws,2013-07-11 03:57:00,